カタログに戻る

STARLINK-4068

運用中通信VLEO
NORAD 52681·PAYLOAD·🇺🇸 United States

打ち上げ May 18, 2022 から Cape Canaveral Space Force Station

Loading…

次のパス (今後24時間)

TLE

最新Source: CelesTrak SupGP

元期: Sep 15, 2026, 02:48 UTC

1 52681C 22053AB  26258.11715278  .00029482  00000+0  94815-3 0  2581
2 52681  53.1600   7.8784 0001213  79.1426  58.6620 15.31683931    17

AllMySatでSTARLINK-4068をリアルタイム追跡

Download on the App Store